| time (UTC) | temp F | wind direction | speed knots | gust knots | rain 1hr in | rain 24hr in | rain mn in | humidity % | barometer mb |
| 20260504150108 | 56 | 0 | 0.0 | 0.9 | 0.00 | 0.00 | 0.00 | 81 | 1010.9 |
| 20260504100414 | 54 | 0 | 0.0 | 0.0 | 0.00 | 0.00 | 0.00 | 84 | 1009.8 |
| 20260504081554 | 57 | 0 | 0.0 | 0.0 | 0.00 | 0.00 | 0.00 | 77 | 1009.9 |
| 20260504050106 | 63 | 0 | 0.0 | 0.0 | 0.00 | 0.00 | 0.00 | 70 | 1009.9 |
| 20260504044602 | 63 | 0 | 0.0 | 0.0 | 0.00 | 0.00 | 0.00 | 69 | 1010.0 |
| 20260504043055 | 64 | 0 | 0.0 | 0.0 | 0.00 | 0.00 | 0.00 | 68 | 1010.1 |
| 20260504041556 | 65 | 44 | 0.0 | 0.9 | 0.00 | 0.00 | 0.00 | 67 | 1009.9 |
| 20260504040106 | 66 | 0 | 0.0 | 0.0 | 0.00 | 0.00 | 0.00 | 65 | 1009.8 |
| 20260504034612 | 67 | 0 | 0.0 | 0.0 | 0.00 | 0.00 | 0.00 | 64 | 1009.6 |
| 20260504033054 | 69 | 0 | 0.0 | 0.0 | 0.00 | 0.00 | 0.00 | 61 | 1009.4 |
| 20260504031552 | 71 | 0 | 0.0 | 0.9 | 0.00 | 0.00 | 0.00 | 57 | 1009.4 |
| 20260504030118 | 74 | 0 | 0.0 | 0.0 | 0.00 | 0.00 | 0.00 | 51 | 1009.4 |
| 20260504024558 | 76 | 0 | 0.0 | 1.7 | 0.00 | 0.00 | 0.00 | 46 | 1009.4 |
| 20260504023051 | 78 | 0 | 0.0 | 1.7 | 0.00 | 0.00 | 0.00 | 41 | 1009.4 |
| 20260504021557 | 83 | 0 | 0.0 | 1.7 | 0.00 | 0.00 | 0.00 | 36 | 1009.4 |
| 20260504020106 | 85 | 179 | 0.0 | 1.7 | 0.00 | 0.00 | 0.00 | 34 | 1009.4 |
| 20260504014604 | 85 | 194 | 0.0 | 1.7 | 0.00 | 0.00 | 0.00 | 36 | 1009.5 |
| 20260504013055 | 85 | 0 | 1.7 | 4.3 | 0.00 | 0.00 | 0.00 | 33 | 1009.5 |
| 20260504011550 | 88 | 0 | 0.9 | 3.5 | 0.00 | 0.00 | 0.00 | 32 | 1009.6 |
| 20260504010053 | 89 | 121 | 0.9 | 2.6 | 0.00 | 0.00 | 0.00 | 31 | 1009.6 |
| 20260504004552 | 90 | 135 | 0.9 | 4.3 | 0.00 | 0.00 | 0.00 | 30 | 1009.9 |
| 20260504003048 | 90 | 0 | 0.0 | 3.5 | 0.00 | 0.00 | 0.00 | 32 | 1010.0 |
| 20260504001603 | 89 | 0 | 0.9 | 2.6 | 0.00 | 0.00 | 0.00 | 32 | 1010.1 |
| 20260504000057 | 89 | 167 | 0.9 | 2.6 | 0.00 | 0.00 | 0.00 | 33 | 1010.2 |
| 20260503234555 | 89 | 0 | 0.0 | 1.7 | 0.00 | 0.00 | 0.00 | 34 | 1010.4 |
| 20260503233051 | 89 | 127 | 0.9 | 3.5 | 0.00 | 0.00 | 0.00 | 32 | 1010.6 |
| 20260503231553 | 89 | 41 | 0.0 | 3.5 | 0.00 | 0.00 | 0.00 | 32 | 1010.8 |
| 20260503230055 | 86 | 182 | 0.9 | 4.3 | 0.00 | 0.00 | 0.00 | 34 | 1010.9 |
| 20260503224552 | 85 | 159 | 0.9 | 4.3 | 0.00 | 0.00 | 0.00 | 35 | 1011.2 |
| 20260503223054 | 86 | 136 | 0.9 | 3.5 | 0.00 | 0.00 | 0.00 | 35 | 1011.3 |
| 20260503221554 | 86 | 153 | 0.0 | 4.3 | 0.00 | 0.00 | 0.00 | 36 | 1011.5 |
| 20260503220054 | 86 | 37 | 0.9 | 3.5 | 0.00 | 0.00 | 0.00 | 35 | 1011.5 |
| 20260503214601 | 85 | 169 | 0.0 | 3.5 | 0.00 | 0.00 | 0.00 | 35 | 1011.7 |
| 20260503213058 | 84 | 194 | 0.9 | 4.3 | 0.00 | 0.00 | 0.00 | 36 | 1011.8 |
| 20260503211554 | 85 | 108 | 0.0 | 3.5 | 0.00 | 0.00 | 0.00 | 37 | 1011.9 |
| 20260503210054 | 84 | 171 | 0.0 | 2.6 | 0.00 | 0.00 | 0.00 | 37 | 1012.1 |
| 20260503204558 | 82 | 0 | 0.0 | 3.5 | 0.00 | 0.00 | 0.00 | 40 | 1012.3 |
| 20260503203059 | 81 | 39 | 0.0 | 1.7 | 0.00 | 0.00 | 0.00 | 38 | 1012.6 |
| 20260503201558 | 79 | 0 | 0.9 | 2.6 | 0.00 | 0.00 | 0.00 | 41 | 1012.8 |
| 20260503200053 | 78 | 0 | 0.9 | 3.5 | 0.00 | 0.00 | 0.00 | 43 | 1012.9 |
| 20260503194554 | 76 | 139 | 0.9 | 2.6 | 0.00 | 0.00 | 0.00 | 44 | 1013.2 |
| 20260503193111 | 75 | 0 | 0.0 | 3.5 | 0.00 | 0.00 | 0.00 | 45 | 1013.4 |
| 20260503191558 | 74 | 37 | 1.7 | 3.5 | 0.00 | 0.00 | 0.00 | 46 | 1013.6 |
| 20260503190111 | 74 | 163 | 0.0 | 4.3 | 0.00 | 0.00 | 0.00 | 50 | 1013.8 |
| 20260503184556 | 72 | 0 | 0.0 | 0.9 | 0.00 | 0.00 | 0.00 | 53 | 1013.9 |
| 20260503183114 | 71 | 0 | 0.0 | 1.7 | 0.00 | 0.00 | 0.00 | 54 | 1014.0 |
| 20260503181559 | 71 | 0 | 0.0 | 1.7 | 0.00 | 0.00 | 0.00 | 58 | 1014.1 |
| 20260503180100 | 69 | 33 | 0.9 | 4.3 | 0.00 | 0.00 | 0.00 | 58 | 1014.1 |
| 20260503174556 | 68 | 37 | 0.0 | 3.5 | 0.00 | 0.00 | 0.00 | 62 | 1014.2 |
| 20260503173112 | 67 | 0 | 0.0 | 3.5 | 0.00 | 0.00 | 0.00 | 65 | 1014.4 |
| 20260503171554 | 66 | 36 | 0.0 | 3.5 | 0.00 | 0.00 | 0.00 | 65 | 1014.3 |